Temp
-8 -7 -7 -7 -7 -7 -6 -7 -8 -7 -6 -7 -7 -6 -7 -6 -6 -6 -6 -6 -6 -6 -6 -6 -6 -6 -6 -6 -6 -6 -7 -7 -7 -7 -7 -7 -7 -7 -7 -7 -7 -7 -7 -8 -8 -8 -9 -9 -9
-8 -8 -7 -6 -7 -7 -7 -8 -8 -8 -7 -7 -7 -7 -7 -7 -7 -6 -6 -6 -6 -6 -6 -6 -6 -7 -7 -7 -7 -7 -7 -7 -7 -7 -7 -8 -8 -8 -8 -8 -8 -8 -9 -9 -9 -9 -10 -10 -10
-9 -8 -7 -6 -6 -7 -7 -8 -8 -7 -7 -7 -7 -7 -7 -7 -7 -7 -7 -6 -7 -7 -7 -7 -7 -7 -7 -7 -8 -8 -8 -8 -8 -8 -8 -8 -8 -8 -9 -9 -9 -9 -10 -10 -10 -10 -10 -11 -11
-9 -8 -7 -7 -7 -7 -8 -8 -8 -7 -7 -7 -7 -7 -7 -7 -7 -7 -7 -7 -7 -7 -7 -7 -7 -7 -7 -8 -8 -8 -8 -8 -8 -8 -8 -9 -9 -9 -9 -10 -10 -10 -11 -11 -11 -11 -11 -11 -12
-9 -8 -8 -6 -8 -7 -8 -9 -9 -7 -7 -7 -7 -6 -7 -7 -7 -7 -7 -7 -7 -7 -8 -8 -8 -8 -8 -8 -9 -9 -9 -9 -9 -9 -9 -10 -10 -10 -11 -11 -11 -11 -12 -12 -12 -12 -12 -12 -12
-9 -8 -7 -8 -8 -8 -8 -8 -9 -8 -7 -7 -7 -8 -7 -7 -7 -7 -7 -7 -7 -8 -8 -8 -8 -9 -9 -9 -9 -9 -9 -9 -9 -10 -10 -11 -11 -11 -11 -12 -12 -12 -12 -12 -12 -13 -13 -13 -13
-9 -9 -7 -7 -8 -8 -9 -9 -9 -9 -7 -7 -7 -7 -8 -8 -8 -8 -8 -8 -8 -8 -8 -9 -9 -9 -9 -9 -9 -9 -10 -10 -11 -11 -11 -11 -12 -12 -12 -12 -12 -12 -12 -12 -13 -13 -14 -14 -14
-9 -9 -8 -8 -8 -8 -9 -10 -10 -10 -9 -9 -9 -8 -9 -9 -9 -9 -8 -8 -8 -9 -9 -9 -9 -9 -9 -10 -10 -10 -10 -11 -11 -11 -12 -12 -12 -13 -13 -12 -13 -13 -13 -13 -13 -14 -14 -14 -14
-10 -9 -8 -8 -8 -9 -9 -8 -9 -9 -9 -9 -9 -9 -9 -9 -9 -9 -9 -9 -9 -9 -9 -10 -10 -10 -10 -10 -10 -11 -11 -11 -12 -12 -12 -12 -13 -13 -13 -13 -13 -13 -13 -14 -15 -15 -15 -15 -15
-10 -9 -9 -8 -9 -9 -9 -9 -9 -9 -10 -7 -8 -10 -9 -10 -10 -10 -10 -10 -10 -10 -10 -10 -10 -11 -11 -11 -11 -11 -11 -12 -12 -13 -13 -13 -14 -13 -13 -13 -14 -14 -15 -15 -14 -15 -15 -16 -16
-10 -10 -9 -10 -9 -11 -11 -10 -10 -10 -10 -8 -10 -9 -10 -11 -11 -11 -11 -11 -11 -11 -11 -11 -11 -11 -11 -12 -12 -12 -12 -13 -13 -13 -13 -13 -14 -13 -13 -14 -15 -15 -15 -15 -15 -16 -17 -16 -16
-11 -11 -10 -10 -10 -10 -11 -11 -10 -10 -10 -10 -10 -10 -11 -11 -12 -12 -11 -12 -11 -11 -11 -12 -12 -12 -12 -12 -12 -13 -13 -13 -13 -14 -14 -14 -14 -14 -14 -15 -15 -15 -16 -16 -16 -17 -16 -17 -17
-11 -11 -11 -10 -10 -10 -10 -9 -10 -10 -9 -10 -10 -11 -10 -10 -12 -12 -12 -12 -12 -12 -12 -12 -12 -12 -13 -13 -13 -13 -13 -14 -14 -14 -15 -15 -14 -15 -15 -15 -15 -16 -16 -17 -17 -17 -17 -17 -17
-12 -12 -11 -11 -11 -10 -10 -10 -11 -9 -10 -11 -11 -11 -11 -12 -11 -11 -12 -12 -12 -12 -12 -12 -12 -13 -13 -13 -13 -14 -14 -14 -15 -15 -15 -16 -15 -16 -16 -16 -16 -16 -16 -18 -18 -18 -18 -17 -17
-11 -11 -11 -10 -11 -10 -11 -10 -10 -10 -11 -10 -10 -11 -11 -11 -12 -12 -12 -12 -12 -12 -12 -12 -13 -13 -13 -14 -14 -14 -14 -15 -15 -16 -16 -16 -16 -16 -16 -17 -17 -17 -17 -18 -18 -18 -18 -18 -18
-11 -11 -11 -10 -11 -11 -11 -10 -10 -11 -11 -11 -11 -11 -12 -12 -12 -12 -12 -12 -12 -12 -13 -13 -13 -13 -14 -14 -14 -14 -15 -15 -16 -16 -16 -16 -16 -16 -16 -17 -17 -18 -18 -18 -18 -18 -18 -18 -18
-11 -11 -10 -11 -11 -10 -11 -11 -11 -11 -11 -10 -11 -12 -12 -12 -12 -12 -12 -12 -12 -13 -13 -13 -13 -14 -14 -14 -15 -15 -16 -16 -16 -16 -15 -16 -16 -17 -17 -17 -18 -18 -18 -18 -18 -18 -18 -18 -19
-12 -11 -12 -11 -11 -11 -11 -11 -12 -12 -11 -12 -11 -12 -12 -12 -12 -12 -12 -12 -13 -13 -13 -13 -14 -14 -14 -14 -15 -15 -16 -16 -16 -17 -17 -16 -16 -18 -18 -18 -18 -18 -18 -19 -18 -19 -19 -19 -20
-12 -11 -12 -12 -11 -12 -11 -12 -11 -11 -11 -12 -12 -12 -12 -12 -12 -13 -13 -13 -13 -13 -13 -13 -14 -14 -14 -14 -14 -15 -16 -17 -16 -17 -16 -17 -19 -19 -19 -19 -19 -19 -19 -19 -19 -19 -20 -21 -21
-12 -12 -11 -12 -12 -12 -12 -12 -12 -11 -12 -13 -12 -12 -13 -13 -13 -13 -13 -13 -13 -13 -14 -14 -14 -14 -14 -14 -15 -16 -16 -17 -17 -18 -18 -18 -19 -19 -19 -19 -19 -19 -19 -20 -20 -21 -21 -22 -23
-12 -12 -12 -12 -12 -12 -12 -12 -11 -11 -12 -12 -13 -13 -13 -13 -13 -13 -13 -13 -13 -14 -14 -14 -14 -14 -14 -15 -16 -16 -17 -17 -18 -18 -19 -19 -19 -19 -19 -19 -20 -20 -20 -21 -21 -22 -23 -24 -24
-11 -12 -12 -12 -12 -11 -11 -12 -12 -11 -12 -13 -13 -14 -13 -13 -13 -13 -13 -13 -14 -14 -14 -14 -14 -14 -15 -15 -16 -17 -18 -18 -19 -19 -19 -19 -19 -19 -19 -20 -20 -21 -21 -22 -22 -23 -24 -24 -25
-11 -13 -11 -11 -11 -12 -11 -12 -12 -12 -12 -13 -13 -13 -13 -13 -13 -14 -13 -13 -14 -14 -14 -14 -15 -15 -15 -16 -17 -18 -18 -19 -19 -19 -19 -20 -19 -19 -20 -20 -21 -22 -22 -23 -24 -24 -25 -25 -25
-11 -11 -11 -11 -11 -11 -12 -12 -12 -12 -12 -12 -12 -12 -13 -13 -13 -13 -13 -14 -14 -14 -14 -15 -15 -15 -16 -17 -18 -18 -19 -19 -19 -20 -20 -20 -20 -20 -21 -21 -22 -23 -23 -24 -25 -25 -26 -26 -26
-11 -12 -11 -12 -12 -12 -12 -12 -13 -13 -13 -12 -12 -13 -13 -13 -13 -13 -14 -14 -14 -15 -15 -15 -16 -16 -16 -17 -18 -19 -19 -19 -20 -20 -20 -20 -20 -21 -22 -22 -23 -24 -25 -25 -26 -26 -26 -26 -26
-13 -13 -13 -13 -12 -12 -12 -12 -12 -12 -12 -12 -13 -13 -14 -13 -13 -14 -14 -14 -15 -15 -15 -16 -16 -16 -17 -18 -19 -19 -19 -19 -20 -20 -20 -21 -21 -22 -22 -24 -24 -25 -26 -26 -26 -26 -26 -26 -26
-13 -13 -13 -13 -12 -12 -12 -12 -12 -12 -13 -13 -13 -13 -13 -13 -14 -14 -14 -14 -15 -15 -16 -16 -16 -17 -17 -19 -19 -19 -19 -20 -20 -20 -21 -21 -22 -23 -24 -25 -26 -26 -26 -26 -26 -26 -26 -27 -27
-13 -13 -13 -13 -13 -13 -13 -13 -13 -13 -12 -12 -13 -13 -13 -14 -14 -14 -15 -15 -15 -15 -16 -17 -17 -17 -18 -19 -19 -19 -20 -20 -21 -21 -22 -22 -23 -24 -25 -26 -26 -26 -27 -26 -27 -27 -27 -27 -27
-13 -13 -13 -13 -14 -14 -14 -13 -13 -13 -13 -13 -13 -13 -14 -14 -14 -15 -15 -15 -16 -16 -16 -17 -17 -18 -19 -19 -19 -20 -20 -21 -21 -22 -22 -23 -24 -25 -26 -27 -27 -27 -27 -27 -27 -27 -27 -28 -28
-14 -13 -13 -13 -13 -13 -14 -14 -13 -13 -13 -13 -13 -14 -14 -14 -14 -15 -15 -16 -16 -16 -17 -17 -18 -19 -20 -20 -20 -20 -21 -21 -22 -23 -23 -24 -25 -26 -27 -27 -27 -27 -27 -27 -27 -27 -28 -28 -28
Height
5897 5899 5900 5900 5900 5897 5893 5895 5894 5894 5895 5893 5891 5891 5891 5890 5889 5890 5886 5884 5883 5882 5880 5878 5876 5874 5871 5869 5866 5863 5861 5858 5855 5853 5850 5847 5843 5840 5837 5833 5830 5827 5825 5822 5819 5816 5813 5811 5808
5897 5898 5900 5899 5897 5896 5893 5891 5889 5895 5893 5892 5890 5889 5889 5888 5887 5886 5885 5884 5881 5879 5877 5875 5873 5870 5868 5865 5862 5859 5856 5853 5850 5847 5844 5841 5837 5833 5829 5827 5823 5820 5817 5814 5812 5808 5805 5802 5799
5897 5898 5900 5900 5898 5895 5886 5878 5890 5895 5892 5890 5891 5889 5888 5887 5886 5885 5883 5882 5880 5877 5875 5872 5870 5867 5864 5861 5858 5854 5851 5848 5845 5841 5838 5834 5830 5826 5822 5819 5816 5812 5809 5807 5803 5800 5797 5793 5790
5897 5899 5900 5900 5901 5904 5908 5894 5893 5892 5890 5888 5888 5888 5887 5886 5884 5883 5881 5879 5877 5874 5872 5869 5866 5863 5859 5856 5853 5849 5846 5842 5839 5835 5831 5826 5823 5819 5814 5811 5808 5805 5801 5798 5794 5790 5787 5783 5780
5896 5898 5899 5897 5897 5898 5879 5894 5891 5886 5886 5885 5884 5884 5884 5882 5881 5879 5877 5875 5873 5870 5867 5865 5861 5858 5854 5851 5847 5844 5840 5836 5832 5828 5823 5819 5814 5811 5807 5803 5800 5797 5793 5788 5784 5780 5776 5772 5769
5894 5897 5897 5899 5896 5891 5890 5886 5890 5885 5884 5882 5883 5882 5881 5880 5878 5875 5873 5871 5869 5866 5863 5860 5857 5853 5849 5846 5842 5838 5834 5829 5824 5820 5816 5811 5807 5803 5799 5795 5791 5787 5783 5778 5773 5769 5765 5761 5756
5893 5894 5894 5894 5893 5887 5891 5888 5886 5885 5880 5881 5878 5879 5878 5876 5874 5872 5870 5867 5864 5861 5859 5855 5852 5848 5844 5840 5835 5831 5826 5821 5817 5812 5808 5804 5800 5795 5791 5785 5781 5776 5771 5767 5761 5757 5752 5748 5743
5891 5891 5892 5896 5886 5871 5888 5886 5881 5883 5881 5878 5874 5873 5873 5872 5870 5868 5866 5863 5860 5856 5854 5850 5845 5842 5837 5833 5828 5823 5819 5814 5810 5805 5800 5796 5791 5787 5779 5775 5770 5765 5760 5755 5749 5745 5740 5736 5729
5889 5890 5895 5889 5891 5880 5887 5882 5879 5881 5877 5875 5874 5870 5869 5868 5866 5864 5861 5858 5854 5851 5848 5845 5840 5835 5831 5826 5821 5816 5811 5807 5802 5797 5792 5786 5781 5776 5772 5765 5760 5752 5747 5742 5736 5732 5724 5718 5714
5886 5887 5893 5886 5886 5884 5884 5881 5876 5879 5873 5868 5868 5864 5865 5862 5859 5858 5855 5852 5848 5844 5842 5838 5834 5828 5824 5818 5813 5808 5803 5798 5793 5789 5783 5778 5771 5765 5759 5754 5748 5741 5738 5731 5724 5718 5714 5709 5704
5884 5885 5890 5887 5883 5886 5888 5889 5884 5881 5876 5864 5860 5864 5862 5858 5854 5852 5849 5847 5842 5838 5835 5832 5826 5822 5817 5812 5807 5801 5795 5791 5784 5778 5772 5766 5759 5752 5745 5740 5733 5727 5720 5714 5709 5703 5699 5694 5687
5881 5883 5885 5886 5885 5882 5882 5882 5886 5875 5871 5860 5859 5858 5855 5853 5848 5845 5843 5842 5838 5834 5830 5826 5819 5814 5809 5804 5798 5792 5787 5782 5776 5769 5761 5755 5747 5738 5733 5725 5719 5712 5707 5701 5695 5689 5684 5678 5672
5879 5881 5882 5882 5882 5881 5876 5879 5870 5867 5862 5857 5854 5852 5851 5847 5843 5840 5837 5834 5831 5828 5823 5818 5813 5808 5801 5796 5790 5784 5779 5772 5766 5759 5752 5744 5736 5727 5721 5714 5707 5700 5694 5688 5682 5674 5668 5662 5656
5873 5875 5877 5877 5878 5874 5873 5875 5870 5863 5857 5856 5853 5851 5849 5845 5841 5837 5832 5829 5825 5822 5817 5811 5806 5800 5794 5788 5782 5776 5768 5763 5755 5749 5741 5733 5725 5717 5709 5702 5695 5687 5680 5673 5666 5659 5652 5647 5641
5868 5869 5870 5873 5876 5877 5864 5865 5860 5855 5857 5851 5851 5847 5844 5839 5836 5833 5829 5824 5819 5815 5809 5805 5800 5793 5787 5780 5773 5767 5759 5752 5746 5738 5732 5723 5714 5705 5695 5690 5684 5673 5666 5659 5651 5644 5636 5633 5625
5864 5867 5869 5874 5873 5863 5860 5861 5848 5852 5850 5845 5847 5845 5839 5836 5832 5828 5823 5817 5813 5809 5803 5799 5793 5786 5779 5772 5765 5759 5751 5743 5736 5727 5719 5711 5703 5693 5684 5676 5669 5659 5651 5646 5636 5629 5622 5617 5611
5862 5864 5868 5871 5855 5854 5856 5856 5850 5849 5846 5843 5843 5840 5837 5832 5829 5824 5817 5812 5809 5804 5798 5792 5786 5779 5771 5765 5756 5748 5742 5734 5724 5716 5708 5698 5690 5681 5672 5664 5655 5647 5638 5631 5623 5614 5609 5602 5595
5861 5864 5864 5862 5858 5861 5857 5848 5849 5848 5844 5836 5839 5836 5834 5829 5824 5819 5813 5808 5804 5798 5792 5786 5778 5770 5763 5756 5748 5740 5731 5723 5715 5708 5698 5688 5679 5669 5661 5652 5643 5634 5626 5618 5610 5602 5593 5587 5581
5857 5859 5860 5857 5857 5853 5850 5844 5843 5846 5836 5836 5835 5833 5831 5825 5819 5814 5809 5804 5798 5792 5785 5777 5769 5762 5755 5748 5740 5730 5722 5713 5703 5694 5687 5680 5669 5659 5650 5641 5630 5622 5613 5605 5596 5588 5580 5572 5567
5849 5852 5854 5856 5859 5858 5850 5842 5842 5840 5833 5831 5832 5829 5825 5820 5814 5810 5804 5799 5792 5784 5777 5770 5763 5755 5747 5738 5729 5720 5711 5702 5693 5684 5675 5666 5658 5647 5637 5627 5618 5608 5600 5591 5582 5574 5567 5559 5553
5846 5848 5850 5851 5853 5853 5851 5839 5838 5833 5831 5828 5827 5825 5821 5815 5810 5805 5799 5793 5785 5777 5771 5763 5756 5748 5739 5729 5720 5710 5701 5691 5682 5672 5662 5653 5645 5636 5626 5615 5606 5596 5586 5577 5568 5561 5554 5549 5540
5842 5845 5845 5844 5846 5847 5851 5841 5828 5825 5824 5824 5822 5819 5815 5810 5805 5799 5793 5786 5779 5772 5764 5757 5749 5740 5730 5721 5711 5701 5691 5682 5673 5663 5653 5643 5634 5625 5615 5604 5593 5583 5573 5565 5556 5549 5542 5536 5530
5837 5838 5838 5839 5839 5840 5842 5831 5828 5821 5823 5823 5819 5814 5811 5806 5800 5793 5786 5780 5773 5766 5759 5751 5742 5732 5723 5713 5703 5693 5683 5672 5662 5652 5642 5632 5622 5612 5602 5591 5580 5571 5562 5553 5545 5537 5530 5524 5518
5833 5833 5833 5834 5835 5834 5835 5835 5821 5819 5820 5820 5816 5813 5807 5802 5795 5788 5781 5775 5768 5761 5753 5744 5735 5725 5715 5705 5694 5684 5674 5664 5653 5643 5632 5621 5611 5600 5589 5579 5569 5559 5550 5542 5534 5526 5519 5512 5505
5828 5829 5829 5831 5831 5831 5829 5823 5820 5819 5817 5817 5813 5809 5804 5797 5789 5783 5777 5770 5763 5755 5746 5737 5727 5717 5707 5696 5686 5676 5666 5655 5644 5633 5622 5611 5600 5589 5579 5568 5559 5549 5540 5531 5523 5516 5509 5501 5493
5825 5827 5828 5828 5829 5829 5819 5816 5819 5817 5814 5812 5808 5804 5798 5791 5785 5778 5772 5764 5756 5748 5739 5729 5719 5709 5698 5688 5678 5668 5657 5645 5634 5623 5612 5601 5590 5580 5569 5559 5549 5539 5530 5522 5513 5506 5498 5491 5482
5824 5824 5825 5824 5825 5826 5818 5814 5811 5813 5811 5808 5804 5799 5793 5786 5780 5773 5766 5758 5750 5741 5732 5721 5711 5701 5690 5680 5669 5659 5647 5636 5625 5614 5603 5592 5581 5570 5559 5549 5539 5531 5521 5513 5504 5497 5489 5480 5470
5820 5821 5822 5820 5819 5819 5808 5808 5808 5807 5806 5804 5799 5793 5787 5781 5774 5768 5761 5752 5744 5734 5725 5714 5704 5693 5682 5672 5661 5649 5639 5628 5617 5606 5594 5583 5572 5561 5550 5540 5531 5522 5513 5504 5496 5487 5478 5468 5459
5816 5814 5816 5817 5818 5818 5818 5807 5806 5804 5801 5798 5793 5788 5783 5776 5770 5762 5755 5746 5738 5728 5717 5707 5696 5685 5674 5664 5653 5641 5631 5620 5609 5597 5586 5575 5564 5552 5542 5533 5524 5515 5506 5497 5487 5477 5468 5458 5449
5814 5813 5814 5814 5814 5812 5811 5805 5804 5801 5797 5794 5789 5784 5778 5772 5765 5757 5750 5741 5731 5720 5710 5700 5688 5677 5666 5656 5645 5634 5624 5612 5600 5588 5577 5566 5555 5545 5535 5526 5517 5507 5498 5489 5479 5469 5458 5449 5440
Wind_Speed
8 5 4 3 2 3 8 7 11 16 6 8 10 10 11 11 13 16 15 15 18 18 20 21 23 24 25 26 27 28 29 30 31 33 34 35 36 38 40 42 43 45 46 48 49 49 50 50 50
8 7 5 3 9 14 8 12 5 9 10 8 10 11 12 13 15 16 17 17 19 20 22 23 25 26 27 28 29 30 31 32 34 35 36 37 39 41 43 44 46 47 48 49 50 51 51 53 54
8 7 5 2 9 17 22 9 12 13 13 12 11 14 15 16 17 18 19 21 22 24 26 27 28 29 29 30 31 32 34 35 36 37 38 40 41 43 45 46 46 47 48 50 51 53 53 53 53
10 7 7 6 10 4 11 19 25 16 15 16 16 16 18 18 19 21 22 24 26 27 29 31 32 33 34 34 35 35 36 37 38 40 41 42 43 44 45 46 46 48 50 52 52 51 52 53 56
12 9 9 4 13 15 10 18 21 23 18 18 19 20 20 22 24 27 29 30 32 32 33 35 35 35 36 35 36 37 38 39 41 42 42 43 43 44 46 47 48 49 51 52 53 54 54 56 57
15 12 9 10 26 24 16 2 17 24 22 24 23 25 27 28 30 31 33 34 35 36 36 36 37 36 36 37 38 39 40 42 43 43 43 43 44 46 48 50 51 52 54 55 56 57 59 60 61
17 16 10 11 24 25 26 25 20 24 29 29 31 30 31 33 33 32 34 35 37 37 37 38 38 38 39 40 41 43 44 45 46 45 45 46 47 49 50 54 56 58 59 61 62 62 62 61 65
20 20 14 4 37 9 0 8 15 21 28 32 34 35 30 28 31 34 35 36 37 38 40 41 42 42 43 44 46 46 48 49 49 48 48 49 50 51 55 57 60 62 64 65 65 65 62 67 69
22 23 12 20 20 28 10 11 23 27 33 34 36 39 25 32 36 38 37 38 39 40 42 43 45 46 46 47 48 50 52 52 51 50 51 53 54 56 57 60 64 68 69 65 62 64 64 67 67
26 24 11 21 18 23 19 18 16 30 31 44 25 24 49 32 35 38 38 38 40 42 43 44 45 47 49 51 53 54 55 54 52 51 53 56 58 59 60 64 64 63 60 64 67 71 69 60 62
28 29 19 20 22 12 13 15 20 21 24 27 30 40 37 27 32 35 36 37 40 42 43 45 48 50 51 53 55 56 55 54 54 55 56 59 60 68 64 58 64 64 71 71 72 71 61 64 66
27 28 24 20 19 26 13 24 25 29 33 42 44 39 29 33 34 38 36 36 41 44 46 46 49 51 53 55 55 56 55 53 53 55 58 55 65 66 54 64 73 73 74 70 73 67 67 64 59
23 23 25 33 30 30 38 34 38 39 43 31 31 30 40 47 33 32 35 37 41 46 47 47 50 52 53 52 53 53 53 55 56 55 56 56 60 50 67 74 76 75 75 71 70 66 65 61 58
21 19 22 25 32 24 31 34 38 40 39 52 41 34 32 31 35 39 39 42 44 47 45 49 51 51 52 52 53 54 56 55 55 55 56 55 63 69 75 71 72 68 75 69 65 61 61 62 58
34 31 25 26 28 30 41 33 29 27 27 44 36 43 41 40 39 39 40 42 44 45 46 48 47 48 50 52 53 54 56 57 56 55 57 57 67 66 61 74 74 75 75 69 62 59 59 63 58
34 36 30 16 19 37 40 34 34 36 38 41 38 40 38 38 39 39 41 42 44 44 45 47 47 49 51 53 56 56 54 54 56 61 65 63 64 63 71 76 76 76 64 61 62 62 59 62 60
29 23 13 21 29 30 22 15 29 28 35 36 35 40 36 37 41 43 44 44 45 45 46 47 48 51 53 53 51 52 52 54 61 57 62 59 66 74 76 79 73 66 65 65 64 63 63 61 58
13 12 25 30 35 21 25 18 20 32 36 40 41 39 39 39 41 46 47 46 46 46 47 49 51 51 48 49 51 51 53 56 52 62 66 68 74 69 68 62 65 66 65 62 63 62 62 58 56
17 23 19 19 24 21 16 23 36 33 40 42 37 43 39 37 43 46 44 45 46 48 51 50 46 46 47 49 51 54 56 56 62 63 64 67 62 57 63 67 63 61 66 63 60 58 56 53 52
31 30 24 20 14 19 23 33 35 37 41 38 39 35 35 40 44 45 45 47 49 51 46 43 44 46 49 52 53 54 56 56 55 56 55 55 58 62 64 63 63 63 63 61 58 56 52 49 49
21 22 22 17 18 20 19 37 40 45 44 36 29 27 38 42 44 45 47 49 50 45 41 43 46 50 51 51 52 54 55 56 55 57 60 62 60 60 61 63 63 61 60 58 56 53 50 46 47
15 13 19 24 23 21 15 28 36 41 22 14 33 31 35 43 46 46 49 50 44 40 43 46 49 49 51 52 53 55 57 57 57 58 61 61 60 60 61 62 61 58 57 55 53 50 48 46 46
18 17 21 20 22 21 18 35 38 43 37 36 39 35 45 48 46 48 49 43 39 43 46 48 48 50 52 54 55 56 57 57 59 61 62 60 62 64 62 59 58 57 56 53 50 48 46 46 46
15 18 18 16 12 13 7 25 38 40 36 30 38 46 45 44 47 46 40 39 41 44 47 49 50 52 54 55 56 56 58 60 59 60 61 63 63 62 60 59 58 57 54 51 48 46 45 46 47
16 14 11 7 16 18 25 19 21 24 28 35 38 41 41 45 41 36 37 39 43 46 49 51 51 53 56 56 57 57 57 60 61 61 60 59 59 60 60 58 57 54 52 49 46 44 45 46 49
12 11 7 13 14 16 20 20 20 24 32 35 34 37 44 39 34 36 38 41 45 48 50 52 53 56 58 57 55 57 59 60 60 58 58 59 60 59 59 57 54 52 49 47 44 44 45 47 51
6 8 12 15 18 16 27 31 36 32 32 29 39 41 36 33 35 37 40 44 47 49 51 53 55 58 58 56 55 59 61 59 56 57 59 59 60 59 57 54 51 48 47 44 43 44 47 51 47
10 11 8 12 10 15 17 22 28 27 32 36 37 32 32 34 36 39 42 46 48 51 53 53 57 60 56 54 57 60 58 55 58 58 59 59 59 57 54 50 48 46 45 43 44 46 50 50 43
3 6 11 14 9 14 14 29 29 33 36 31 28 30 32 35 38 41 44 46 48 52 52 55 60 58 54 55 58 57 55 57 58 59 60 59 57 53 50 47 44 44 43 43 45 50 52 44 44
13 17 15 15 13 12 16 29 25 21 25 25 29 31 33 37 40 43 44 47 49 51 54 58 60 55 53 56 57 54 57 58 59 60 59 57 54 49 45 44 44 44 44 45 49 53 45 44 47
Wind_Direction
156 161 139 115 285 250 271 154 138 281 273 324 323 321 327 316 308 308 309 311 309 310 309 309 310 311 312 311 311 311 313 312 310 308 306 303 300 298 296 295 293 293 293 293 292 294 295 296 296
171 161 164 224 288 332 291 221 110 273 289 313 322 314 317 321 318 316 313 313 309 310 311 310 310 311 312 312 313 312 313 311 309 305 302 301 299 297 295 295 294 295 296 296 297 298 298 298 298
180 172 176 234 343 338 346 81 9 308 305 308 315 317 321 323 320 319 315 315 316 316 315 313 313 311 311 310 313 312 313 311 307 304 302 300 298 297 296 297 298 299 300 301 301 301 300 300 299
183 174 156 113 26 233 274 288 299 293 306 311 301 298 309 314 315 316 318 321 322 321 319 318 317 315 314 315 315 313 312 309 305 303 302 300 300 299 299 300 302 303 304 303 301 302 299 298 297
193 179 165 339 254 260 97 285 292 297 291 295 304 305 309 312 315 317 319 321 323 323 322 322 320 316 315 315 313 311 310 308 306 305 304 303 302 301 301 303 305 307 307 305 302 299 297 299 300
199 186 198 312 297 251 291 324 287 293 289 299 295 309 310 309 313 315 318 320 320 321 320 319 318 316 315 314 313 313 311 310 309 308 306 304 303 303 304 304 306 308 306 303 302 301 298 296 298
209 195 174 262 289 298 273 296 304 304 296 296 297 301 308 310 314 320 320 320 319 318 318 317 317 316 315 315 315 315 314 313 312 310 308 306 304 305 305 306 306 305 307 306 301 299 299 299 301
217 217 205 79 281 191 282 286 314 311 307 305 307 302 312 320 323 324 321 318 317 317 318 318 319 319 318 318 317 315 315 316 317 314 310 308 307 306 305 305 304 303 304 302 300 298 300 303 308
227 228 200 274 256 288 292 326 314 309 304 292 301 297 308 322 322 321 319 318 316 318 318 320 320 319 319 317 316 316 317 317 316 314 312 309 306 304 301 302 303 304 302 301 302 305 309 310 307
231 237 178 280 326 273 344 325 309 304 314 305 295 298 308 316 316 315 314 314 315 317 319 319 319 318 317 317 317 317 317 316 315 313 311 308 305 303 304 305 306 303 299 302 305 308 307 305 303
235 239 216 287 289 303 284 295 285 317 298 292 287 302 304 307 308 307 310 315 317 318 318 320 318 316 317 315 315 314 313 314 314 312 310 308 307 307 304 304 308 309 310 309 307 306 303 305 305
241 242 232 250 291 280 286 269 289 289 276 274 289 297 305 304 307 307 313 319 319 319 320 320 315 316 314 313 312 311 312 312 311 311 309 309 307 304 295 299 310 310 309 306 307 305 303 306 300
247 252 256 240 253 274 271 271 272 267 273 268 275 286 299 294 299 307 314 321 321 318 319 317 313 311 309 309 309 309 311 310 310 309 307 304 307 300 302 305 304 305 306 305 306 307 307 305 297
219 243 259 258 249 259 283 281 270 274 299 295 275 307 306 331 334 331 325 323 321 320 313 311 309 307 308 309 309 309 308 309 307 307 306 301 300 303 299 301 302 303 306 308 311 307 304 300 299
236 236 243 262 266 286 269 287 281 262 277 280 308 315 329 333 331 326 320 317 316 314 310 310 310 309 309 308 308 308 307 306 307 304 304 298 299 302 301 305 301 304 308 312 308 306 306 303 301
239 248 265 291 268 257 268 278 305 307 307 307 318 321 333 328 324 322 319 318 317 315 313 314 312 310 309 308 307 307 306 306 303 301 302 296 293 296 303 305 305 313 310 309 310 307 306 303 301
244 264 268 262 280 275 314 342 273 293 296 307 310 323 325 324 325 323 320 319 317 315 314 312 310 308 308 309 308 308 308 303 302 306 297 292 300 306 306 304 312 311 310 310 307 306 304 305 305
270 273 263 268 252 279 278 284 300 294 301 305 310 315 317 321 323 322 318 316 315 314 312 310 310 311 314 313 311 309 307 306 298 302 297 297 304 307 308 310 311 310 310 308 309 308 306 306 305
262 249 264 301 313 307 318 296 299 298 303 302 308 310 314 314 318 321 316 314 315 315 314 313 316 318 316 313 311 310 308 306 298 302 301 304 308 308 309 309 311 311 310 310 309 310 310 307 304
240 236 249 262 280 265 279 288 292 294 285 289 298 307 312 314 318 317 315 316 315 317 318 320 319 317 317 316 315 313 311 310 309 311 312 313 312 313 314 313 312 312 312 311 312 312 309 306 304
260 257 261 271 256 252 295 294 285 281 285 294 295 306 311 315 316 315 315 316 319 320 321 320 320 320 321 320 318 317 315 315 316 317 317 315 315 314 314 313 312 312 313 315 314 312 310 308 308
269 246 248 250 261 266 266 283 287 290 295 324 315 313 314 317 314 314 316 319 319 320 321 321 322 324 323 322 320 319 318 317 316 315 316 315 315 315 314 313 314 316 317 317 315 312 309 309 309
268 253 272 281 281 279 269 270 279 287 289 291 310 316 314 310 311 316 317 318 320 321 322 324 326 326 326 324 322 321 320 318 318 318 317 315 316 315 316 317 318 319 319 317 315 312 310 310 311
277 277 280 283 297 293 309 260 263 276 288 298 306 304 305 309 313 315 317 318 321 321 324 327 326 327 327 326 324 323 322 321 320 318 316 316 317 318 319 320 320 320 319 318 316 313 312 313 314
281 281 288 312 298 290 260 269 267 279 292 291 302 304 307 311 313 316 318 319 322 324 326 326 327 329 329 327 324 324 323 321 319 318 318 319 321 321 322 322 321 320 320 319 317 315 315 315 315
260 297 265 273 274 280 306 285 283 274 285 297 304 309 312 313 315 317 319 321 323 325 327 327 328 329 328 324 324 324 324 322 322 323 324 324 324 323 323 322 322 322 321 321 320 317 316 316 317
265 253 256 266 259 261 272 271 273 287 289 295 307 310 311 313 316 319 321 322 324 326 326 327 327 327 325 324 323 325 326 326 325 326 326 326 325 325 325 325 324 323 324 323 320 318 318 320 318
247 261 258 270 279 243 307 308 310 308 299 303 307 309 311 316 318 320 322 324 326 326 327 326 327 327 324 325 326 327 328 328 328 328 328 327 326 326 327 327 327 327 325 323 322 322 323 323 319
192 240 219 239 254 283 285 286 291 292 298 305 308 312 316 319 320 321 325 326 326 326 327 327 327 326 326 327 328 328 329 329 330 329 328 328 328 328 329 329 329 328 327 326 326 327 327 323 321
255 261 270 277 254 247 271 285 301 311 308 310 311 316 319 319 321 324 327 327 327 328 327 326 327 328 328 328 330 330 330 330 328 329 328 329 329 330 332 332 332 330 330 330 330 329 327 325 323